Weather in Sary-Su

Russia / Chechen Republic     43°50′25″N   46°25′58″E
temp.,
°C
wind,
m/s
gust,
m/s
humid.,
%
clouds,
%
prec.,
mm/h
press.,
hPa
HPBL,
m
14 may, fri
fri1400:00+12ese34895 0.0 101458
03:00+11ese33925 0.0 101452
06:00+14se248236 0.0 1014131
09:00+23se48565 0.0 1013547
12:00+29se914340 0.0 1012976
15:00+28ese1017381 0.0 1011949
18:00+22ese922480 0.0 1011524
21:00+21ese921420 0.0 1012453
15 may, sat
sat1500:00+21ese819400 0.0 1011440
03:00+19ese717410 0.0 1011367
06:00+18se514590 0.0 1012330
09:00+26se69390 0.0 1013635
12:00+30se79250 0.0 10131139
15:00+29ese812250 0.0 1012938
18:00+22e716410 0.0 1012390
21:00+19ese6173990 0.0 1012304
16 may, sun
sun1600:00+18ese515426 0.0 1011270
03:00+17ese6165017 0.0 1011309
06:00+18ese616560 0.0 1010379
09:00+27ese916334 0.0 10101084
12:00+30ese1117250 0.0 10081535
15:00+28ese1219320 0.0 10071256
18:00+22ese1123430 0.0 1006673
21:00+22ese1124360 0.0 1006684
17 may, mon
mon1700:00+21ese1022375 0.0 1005623
03:00+20ese718435 0.0 1005450
06:00+19ese8195152 0.0 1006453
09:00+26ese10173556 0.0 1006966
12:00+29ese121728100 0.0 10051131
15:00+26ese11173789 0.0 1005826
18:00+22e919475 0.0 1004490
21:00+18ese411524 0.0 1006260
18 may, tue
tue1800:00+14ese2270100 0.0 100726
03:00+14wnw336918 0.0 100740
06:00+18wsw5980100 0.0 1009303
09:00+23w7953100 0.3 1010884
12:00+26w7746100 0.4 10101317
15:00+27wnw7945100 0.4 10101647
18:00+22wsw71268100 0.0 1011507
21:00+20wsw61178100 0.1 1012343